JES3791 SGAS-SABE

Flight info

Callsign JES3791
Flight time 1h 29m
Altitude 36000
Route ITAPE ASATI UP526 REPAM UZ103 DALAB UL793 GUA UZ129 PAGON PAGON9R
Aircraft A320/M-SDE3FGHIRWY/LB1

Departure

Time 2026-05-08 21:15
Airport Silvio Pettirossi International Airport (SGAS)

Arrival

Time 2026-05-08 22:45
Airport Aeroparque Jorge Newbery (SABE)
Time Latitude Longitude Altitude Speed Heading
2026-05-08 20:42 -25.24125 -57.51500 279 ft 0 kts 104°
2026-05-08 21:06 -25.24123 -57.51507 279 ft 2 kts 105°
2026-05-08 21:06 -25.24120 -57.51521 304 ft 2 kts 105°
2026-05-08 21:07 -25.24116 -57.51536 273 ft 2 kts 105°
2026-05-08 21:07 -25.24112 -57.51551 281 ft 2 kts 106°
2026-05-08 21:07 -25.24108 -57.51565 281 ft 2 kts 105°
2026-05-08 21:07 -25.24105 -57.51580 279 ft 2 kts 103°
2026-05-08 21:08 -25.24103 -57.51593 282 ft 2 kts 89°
2026-05-08 21:08 -25.24104 -57.51603 279 ft 1 kts 44°
2026-05-08 21:08 -25.24109 -57.51607 279 ft 1 kts 24°
2026-05-08 21:08 -25.24114 -57.51610 279 ft 1 kts 18°
2026-05-08 21:09 -25.24117 -57.51611 283 ft 0 kts 16°
2026-05-08 21:09 -25.24116 -57.51611 283 ft 0 kts 16°
2026-05-08 21:11 -25.24113 -57.51610 279 ft 2 kts 16°
2026-05-08 21:11 -25.24074 -57.51600 278 ft 9 kts 356°
2026-05-08 21:12 -25.24008 -57.51637 277 ft 13 kts 329°
2026-05-08 21:12 -25.23923 -57.51683 276 ft 14 kts
2026-05-08 21:12 -25.23817 -57.51658 275 ft 17 kts 12°
2026-05-08 21:12 -25.23687 -57.51629 273 ft 20 kts 17°
2026-05-08 21:13 -25.23544 -57.51590 271 ft 23 kts 12°
2026-05-08 21:13 -25.23381 -57.51551 269 ft 25 kts 12°
2026-05-08 21:13 -25.23201 -57.51507 267 ft 28 kts 12°
2026-05-08 21:13 -25.23092 -57.51517 265 ft 6 kts 299°
2026-05-08 21:14 -25.23074 -57.51571 265 ft 9 kts 284°
2026-05-08 21:14 -25.23059 -57.51650 265 ft 12 kts 281°
2026-05-08 21:14 -25.23086 -57.51694 265 ft 6 kts 201°
2026-05-08 21:14 -25.23096 -57.51697 266 ft 1 kts 194°
2026-05-08 21:15 -25.23245 -57.51734 267 ft 61 kts 192°
2026-05-08 21:15 -25.23921 -57.51897 278 ft 134 kts 192°
2026-05-08 21:15 -25.24966 -57.52152 642 ft 161 kts 192°
2026-05-08 21:15 -25.26079 -57.52418 1478 ft 165 kts 191°
2026-05-08 21:16 -25.27086 -57.52640 1975 ft 138 kts 191°
2026-05-08 21:16 -25.28114 -57.52891 1855 ft 181 kts 191°
2026-05-08 21:16 -25.29444 -57.53195 2374 ft 204 kts 190°
2026-05-08 21:16 -25.30743 -57.53477 3934 ft 163 kts 188°
2026-05-08 21:17 -25.31725 -57.53692 5463 ft 137 kts 188°
2026-05-08 21:17 -25.32703 -57.53912 6020 ft 152 kts 190°
2026-05-08 21:17 -25.33789 -57.54176 6573 ft 164 kts 192°
2026-05-08 21:17 -25.34965 -57.54456 6976 ft 193 kts 187°
2026-05-08 21:18 -25.36411 -57.54399 7323 ft 223 kts 164°
2026-05-08 21:18 -25.37789 -57.53560 8154 ft 231 kts 137°
2026-05-08 21:18 -25.38759 -57.52134 9105 ft 235 kts 121°
2026-05-08 21:18 -25.39555 -57.50485 9725 ft 255 kts 117°
2026-05-08 21:19 -25.40479 -57.48665 9968 ft 290 kts 120°
2026-05-08 21:19 -25.41565 -57.46670 10151 ft 320 kts 121°
2026-05-08 21:19 -25.42918 -57.44714 11068 ft 317 kts 141°
2026-05-08 21:19 -25.44767 -57.43541 12296 ft 300 kts 167°
2026-05-08 21:20 -25.46782 -57.43261 13332 ft 289 kts 189°
2026-05-08 21:20 -25.48770 -57.43512 14017 ft 288 kts 198°
2026-05-08 21:20 -25.50740 -57.43941 14667 ft 289 kts 200°
2026-05-08 21:20 -25.52721 -57.44371 15347 ft 291 kts 199°
2026-05-08 21:21 -25.54727 -57.44763 15966 ft 294 kts 198°
2026-05-08 21:21 -25.56763 -57.45119 16597 ft 297 kts 197°
2026-05-08 21:21 -25.58813 -57.45454 17220 ft 299 kts 197°
2026-05-08 21:21 -25.60887 -57.45783 17812 ft 302 kts 197°
2026-05-08 21:22 -25.62977 -57.46113 18393 ft 304 kts 198°
2026-05-08 21:22 -25.64368 -57.46332 18742 ft 305 kts 198°
2026-05-08 21:22 -25.67159 -57.46773 19460 ft 306 kts 198°
2026-05-08 21:22 -25.69278 -57.47109 19977 ft 308 kts 198°
2026-05-08 21:23 -25.71406 -57.47447 20497 ft 310 kts 198°
2026-05-08 21:23 -25.72825 -57.47674 20825 ft 312 kts 198°
2026-05-08 21:23 -25.75713 -57.48135 21517 ft 314 kts 198°
2026-05-08 21:23 -25.77148 -57.48364 21843 ft 316 kts 198°
2026-05-08 21:24 -25.80074 -57.48831 22518 ft 318 kts 199°
2026-05-08 21:24 -25.81532 -57.49064 22846 ft 320 kts 199°
2026-05-08 21:24 -25.84472 -57.49533 23501 ft 323 kts 199°
2026-05-08 21:24 -25.85981 -57.49774 23770 ft 325 kts 199°
2026-05-08 21:25 -25.88202 -57.50129 24168 ft 328 kts 199°
2026-05-08 21:25 -25.90465 -57.50490 24584 ft 329 kts 199°
2026-05-08 21:25 -25.92745 -57.50854 24981 ft 332 kts 199°
2026-05-08 21:25 -25.95040 -57.51221 25374 ft 334 kts 200°
2026-05-08 21:26 -25.97350 -57.51590 25772 ft 336 kts 200°
2026-05-08 21:26 -25.99677 -57.51963 26129 ft 339 kts 200°
2026-05-08 21:26 -26.02023 -57.52338 26527 ft 341 kts 200°
2026-05-08 21:26 -26.04380 -57.52716 26889 ft 344 kts 200°
2026-05-08 21:27 -26.06760 -57.53098 27240 ft 346 kts 200°
2026-05-08 21:27 -26.09192 -57.53355 27589 ft 358 kts 193°
2026-05-08 21:27 -26.11697 -57.53370 27947 ft 361 kts 193°
2026-05-08 21:27 -26.14197 -57.53389 28238 ft 364 kts 193°
2026-05-08 21:28 -26.16740 -57.53414 28587 ft 366 kts 193°
2026-05-08 21:28 -26.19297 -57.53440 28922 ft 368 kts 193°
2026-05-08 21:28 -26.21869 -57.53469 29211 ft 371 kts 193°
2026-05-08 21:28 -26.24465 -57.53498 29526 ft 374 kts 193°
2026-05-08 21:29 -26.27072 -57.53526 29831 ft 376 kts 193°
2026-05-08 21:29 -26.29696 -57.53554 30130 ft 378 kts 194°
2026-05-08 21:29 -26.32334 -57.53582 30371 ft 381 kts 194°
2026-05-08 21:29 -26.34990 -57.53612 30618 ft 383 kts 194°
2026-05-08 21:30 -26.37662 -57.53640 30877 ft 385 kts 194°
2026-05-08 21:30 -26.40351 -57.53669 31130 ft 387 kts 194°
2026-05-08 21:30 -26.43056 -57.53698 31357 ft 391 kts 194°
2026-05-08 21:30 -26.45788 -57.53728 31603 ft 393 kts 194°
2026-05-08 21:31 -26.48491 -57.53757 31846 ft 395 kts 194°
2026-05-08 21:31 -26.51242 -57.53786 32092 ft 396 kts 194°
2026-05-08 21:31 -26.54015 -57.53817 32330 ft 398 kts 194°
2026-05-08 21:31 -26.56802 -57.53848 32521 ft 402 kts 194°
2026-05-08 21:32 -26.59613 -57.53880 32746 ft 404 kts 194°
2026-05-08 21:32 -26.62424 -57.53910 32980 ft 405 kts 194°
2026-05-08 21:32 -26.65251 -57.53940 33205 ft 407 kts 194°
2026-05-08 21:32 -26.68092 -57.53972 33391 ft 410 kts 194°
2026-05-08 21:33 -26.70947 -57.54004 33585 ft 412 kts 193°
2026-05-08 21:33 -26.73820 -57.54035 33805 ft 413 kts 193°
2026-05-08 21:33 -26.76702 -57.54066 34011 ft 415 kts 193°
2026-05-08 21:33 -26.79598 -57.54098 34182 ft 417 kts 193°
2026-05-08 21:34 -26.82505 -57.54129 34362 ft 418 kts 193°
2026-05-08 21:34 -26.85420 -57.54161 34521 ft 420 kts 193°
2026-05-08 21:34 -26.88316 -57.54214 34660 ft 421 kts 194°
2026-05-08 21:34 -26.91255 -57.54302 34830 ft 422 kts 194°
2026-05-08 21:35 -26.94196 -57.54399 34994 ft 423 kts 194°
2026-05-08 21:35 -26.97144 -57.54493 35159 ft 425 kts 194°
2026-05-08 21:35 -27.00101 -57.54584 35318 ft 426 kts 194°
2026-05-08 21:35 -27.03075 -57.54673 35475 ft 428 kts 194°
2026-05-08 21:36 -27.06054 -57.54760 35630 ft 429 kts 194°
2026-05-08 21:36 -27.09054 -57.54848 35747 ft 432 kts 194°
2026-05-08 21:36 -27.12065 -57.54936 35880 ft 433 kts 194°
2026-05-08 21:36 -27.15090 -57.55024 35986 ft 436 kts 194°
2026-05-08 21:37 -27.18143 -57.55116 35972 ft 442 kts 194°
2026-05-08 21:37 -27.24368 -57.55302 35972 ft 452 kts 194°
2026-05-08 21:38 -27.30736 -57.55488 35974 ft 463 kts 193°
2026-05-08 21:38 -27.37253 -57.55678 35977 ft 473 kts 193°
2026-05-08 21:39 -27.43793 -57.56139 35981 ft 470 kts 201°
2026-05-08 21:39 -27.50149 -57.57722 35979 ft 471 kts 205°
2026-05-08 21:40 -27.56596 -57.59388 35981 ft 477 kts 205°
2026-05-08 21:40 -27.63088 -57.61066 35978 ft 480 kts 205°
2026-05-08 21:41 -27.72846 -57.63601 35979 ft 483 kts 205°
2026-05-08 21:41 -27.79394 -57.65306 35981 ft 484 kts 205°
2026-05-08 21:42 -27.85978 -57.67023 35975 ft 485 kts 205°
2026-05-08 21:42 -27.92570 -57.68744 35981 ft 486 kts 205°
2026-05-08 21:43 -27.99138 -57.70461 35973 ft 486 kts 205°
2026-05-08 21:43 -28.05743 -57.72191 35978 ft 486 kts 205°
2026-05-08 21:44 -28.12339 -57.73920 35979 ft 487 kts 205°
2026-05-08 21:44 -28.18943 -57.75653 35977 ft 487 kts 205°
2026-05-08 21:45 -28.25541 -57.77387 35973 ft 487 kts 205°
2026-05-08 21:45 -28.32108 -57.79112 35976 ft 488 kts 205°
2026-05-08 21:46 -28.38739 -57.80824 35978 ft 488 kts 205°
2026-05-08 21:46 -28.45385 -57.82539 35977 ft 489 kts 205°
2026-05-08 21:47 -28.52002 -57.84253 35972 ft 489 kts 205°
2026-05-08 21:47 -28.58653 -57.85979 35976 ft 489 kts 205°
2026-05-08 21:48 -28.65282 -57.87702 35976 ft 489 kts 205°
2026-05-08 21:48 -28.71924 -57.89431 35971 ft 489 kts 205°
2026-05-08 21:49 -28.78521 -57.91150 35974 ft 490 kts 205°
2026-05-08 21:49 -28.85177 -57.92886 35970 ft 490 kts 205°
2026-05-08 21:50 -28.91834 -57.94625 35962 ft 491 kts 205°
2026-05-08 21:50 -28.98491 -57.96366 35965 ft 491 kts 205°
2026-05-08 21:51 -29.05158 -57.98113 35967 ft 491 kts 205°
2026-05-08 21:51 -29.11794 -57.99853 35972 ft 492 kts 205°
2026-05-08 21:52 -29.18481 -58.01609 35965 ft 492 kts 205°
2026-05-08 21:52 -29.25154 -58.03364 35965 ft 493 kts 205°
2026-05-08 21:53 -29.31842 -58.05125 35965 ft 493 kts 205°
2026-05-08 21:53 -29.38528 -58.06888 35958 ft 493 kts 205°
2026-05-08 21:54 -29.45253 -58.08588 35961 ft 497 kts 202°
2026-05-08 21:54 -29.52456 -58.10028 35961 ft 499 kts 201°
2026-05-08 21:55 -29.59288 -58.11401 35957 ft 498 kts 201°
2026-05-08 21:56 -29.69475 -58.13516 35957 ft 498 kts 201°
2026-05-08 21:56 -29.76288 -58.14940 35956 ft 498 kts 201°
2026-05-08 21:57 -29.83112 -58.16366 35953 ft 498 kts 201°
2026-05-08 21:57 -29.89962 -58.17677 35954 ft 500 kts 200°
2026-05-08 21:58 -29.95666 -58.18747 35957 ft 500 kts 200°
2026-05-08 21:58 -30.02535 -58.20051 35959 ft 500 kts 200°
2026-05-08 21:59 -30.09394 -58.21363 35946 ft 499 kts 200°
2026-05-08 21:59 -30.16251 -58.22678 35946 ft 499 kts 200°
2026-05-08 22:00 -30.23112 -58.23995 35947 ft 499 kts 200°
2026-05-08 22:00 -30.29921 -58.25304 35947 ft 499 kts 199°
2026-05-08 22:01 -30.36776 -58.26623 35949 ft 499 kts 199°
2026-05-08 22:01 -30.43627 -58.27944 35941 ft 499 kts 199°
2026-05-08 22:02 -30.50476 -58.29266 35943 ft 499 kts 199°
2026-05-08 22:02 -30.57316 -58.30592 35944 ft 498 kts 199°
2026-05-08 22:03 -30.64138 -58.31974 35931 ft 496 kts 200°
2026-05-08 22:03 -30.70907 -58.33488 35946 ft 495 kts 200°
2026-05-08 22:04 -30.77629 -58.34983 35939 ft 495 kts 199°
2026-05-08 22:04 -30.84393 -58.36474 35937 ft 494 kts 199°
2026-05-08 22:05 -30.91149 -58.37956 35935 ft 494 kts 199°
2026-05-08 22:05 -30.97949 -58.39337 35930 ft 495 kts 198°
2026-05-08 22:06 -31.04737 -58.40708 35931 ft 495 kts 198°
2026-05-08 22:06 -31.11524 -58.42085 35925 ft 495 kts 198°
2026-05-08 22:07 -31.18306 -58.43459 35927 ft 495 kts 198°
2026-05-08 22:07 -31.25095 -58.44832 35921 ft 495 kts 197°
2026-05-08 22:08 -31.31881 -58.46206 35923 ft 495 kts 197°
2026-05-08 22:08 -31.38669 -58.47587 35919 ft 495 kts 197°
2026-05-08 22:09 -31.45458 -58.48971 35920 ft 495 kts 197°
2026-05-08 22:09 -31.52249 -58.50358 35913 ft 495 kts 197°
2026-05-08 22:10 -31.58994 -58.51738 35914 ft 495 kts 197°
2026-05-08 22:10 -31.65785 -58.53131 35911 ft 495 kts 196°
2026-05-08 22:11 -31.72587 -58.54527 35913 ft 496 kts 196°
2026-05-08 22:11 -31.79387 -58.55925 35908 ft 496 kts 196°
2026-05-08 22:12 -31.86186 -58.57324 35910 ft 496 kts 196°
2026-05-08 22:12 -31.92981 -58.58725 35904 ft 496 kts 196°
2026-05-08 22:13 -31.99780 -58.60129 35908 ft 496 kts 195°
2026-05-08 22:13 -32.06600 -58.61540 35900 ft 497 kts 195°
2026-05-08 22:14 -32.13411 -58.62951 35897 ft 497 kts 195°
2026-05-08 22:14 -32.20191 -58.64357 35886 ft 498 kts 195°
2026-05-08 22:15 -32.27021 -58.65777 35890 ft 498 kts 195°
2026-05-08 22:15 -32.33915 -58.66830 35878 ft 504 kts 186°
2026-05-08 22:16 -32.40967 -58.66437 35879 ft 509 kts 180°
2026-05-08 22:16 -32.48030 -58.65857 35890 ft 509 kts 180°
2026-05-08 22:17 -32.55089 -58.65276 35878 ft 509 kts 180°
2026-05-08 22:17 -32.62161 -58.64687 35869 ft 509 kts 180°
2026-05-08 22:18 -32.69236 -58.64094 35865 ft 509 kts 180°
2026-05-08 22:18 -32.76267 -58.63504 35849 ft 510 kts 180°
2026-05-08 22:19 -32.83352 -58.62909 35844 ft 510 kts 180°
2026-05-08 22:19 -32.90446 -58.62312 35832 ft 510 kts 180°
2026-05-08 22:20 -32.97545 -58.61714 35830 ft 511 kts 180°
2026-05-08 22:20 -33.04608 -58.61846 35825 ft 505 kts 191°
2026-05-08 22:21 -33.11622 -58.62660 35830 ft 507 kts 189°
2026-05-08 22:21 -33.15074 -58.63043 35780 ft 496 kts 189°
2026-05-08 22:21 -33.18455 -58.63420 35607 ft 481 kts 189°
2026-05-08 22:21 -33.21753 -58.63796 35269 ft 472 kts 189°
2026-05-08 22:22 -33.25039 -58.64006 34628 ft 475 kts 182°
2026-05-08 22:22 -33.28353 -58.63942 33918 ft 477 kts 182°
2026-05-08 22:22 -33.31687 -58.63871 33083 ft 479 kts 181°
2026-05-08 22:22 -33.35026 -58.63802 32280 ft 480 kts 181°
2026-05-08 22:23 -33.38371 -58.63736 31522 ft 480 kts 181°
2026-05-08 22:23 -33.41707 -58.63672 30764 ft 480 kts 181°
2026-05-08 22:23 -33.45051 -58.63610 30020 ft 480 kts 181°
2026-05-08 22:23 -33.48388 -58.63549 29340 ft 477 kts 181°
2026-05-08 22:24 -33.51677 -58.63486 28750 ft 471 kts 181°
2026-05-08 22:24 -33.54940 -58.63422 28138 ft 466 kts 181°
2026-05-08 22:24 -33.58167 -58.63359 27510 ft 462 kts 181°
2026-05-08 22:24 -33.61367 -58.63297 26907 ft 458 kts 181°
2026-05-08 22:25 -33.64534 -58.63237 26343 ft 453 kts 182°
2026-05-08 22:25 -33.67671 -58.63176 25787 ft 448 kts 182°
2026-05-08 22:25 -33.70778 -58.63116 25222 ft 445 kts 182°
2026-05-08 22:25 -33.73837 -58.63056 24916 ft 434 kts 182°
2026-05-08 22:26 -33.76772 -58.62996 24819 ft 419 kts 183°
2026-05-08 22:26 -33.79661 -58.62941 24809 ft 421 kts 183°
2026-05-08 22:26 -33.82650 -58.62891 24807 ft 437 kts 183°
2026-05-08 22:26 -33.85701 -58.62838 24634 ft 434 kts 182°
2026-05-08 22:27 -33.88728 -58.62778 23936 ft 436 kts 183°
2026-05-08 22:27 -33.91760 -58.62717 23390 ft 433 kts 183°
2026-05-08 22:27 -33.94759 -58.62657 22801 ft 429 kts 183°
2026-05-08 22:27 -33.97722 -58.62598 22272 ft 423 kts 183°
2026-05-08 22:28 -34.00610 -58.62541 21767 ft 417 kts 183°
2026-05-08 22:28 -34.03496 -58.62485 21252 ft 411 kts 184°
2026-05-08 22:28 -34.06342 -58.62430 20721 ft 406 kts 184°
2026-05-08 22:28 -34.09157 -58.62377 20235 ft 401 kts 184°
2026-05-08 22:29 -34.11931 -58.62324 19752 ft 396 kts 184°
2026-05-08 22:29 -34.14662 -58.62271 19270 ft 390 kts 184°
2026-05-08 22:29 -34.17362 -58.62219 18785 ft 386 kts 184°
2026-05-08 22:29 -34.20032 -58.62168 18313 ft 381 kts 184°
2026-05-08 22:30 -34.22667 -58.62118 17836 ft 376 kts 184°
2026-05-08 22:30 -34.25267 -58.62069 17241 ft 373 kts 183°
2026-05-08 22:30 -34.27864 -58.62021 16628 ft 371 kts 183°
2026-05-08 22:30 -34.30442 -58.61974 16058 ft 368 kts 182°
2026-05-08 22:31 -34.32973 -58.61927 15511 ft 366 kts 182°
2026-05-08 22:31 -34.35524 -58.61880 14970 ft 363 kts 182°
2026-05-08 22:31 -34.38042 -58.61833 14410 ft 362 kts 182°
2026-05-08 22:31 -34.40530 -58.61786 13888 ft 358 kts 182°
2026-05-08 22:32 -34.43011 -58.61738 13078 ft 355 kts 182°
2026-05-08 22:32 -34.45479 -58.61689 12303 ft 351 kts 182°
2026-05-08 22:32 -34.47881 -58.61641 11557 ft 346 kts 182°
2026-05-08 22:32 -34.50283 -58.61595 10818 ft 342 kts 182°
2026-05-08 22:33 -34.52529 -58.61550 10372 ft 331 kts 182°
2026-05-08 22:33 -34.54774 -58.61502 10184 ft 312 kts 182°
2026-05-08 22:33 -34.56888 -58.61457 10010 ft 293 kts 182°
2026-05-08 22:33 -34.58847 -58.61396 9784 ft 280 kts 177°
2026-05-08 22:34 -34.60702 -58.60686 9202 ft 284 kts 151°
2026-05-08 22:34 -34.62176 -58.59040 8347 ft 296 kts 126°
2026-05-08 22:34 -34.63027 -58.56725 7461 ft 308 kts 107°
2026-05-08 22:34 -34.63527 -58.54154 6584 ft 316 kts 104°
2026-05-08 22:35 -34.64002 -58.51558 6061 ft 310 kts 105°
2026-05-08 22:35 -34.64521 -58.49089 5814 ft 293 kts 108°
2026-05-08 22:35 -34.65075 -58.46782 5469 ft 281 kts 114°
2026-05-08 22:35 -34.66009 -58.44809 5290 ft 259 kts 130°
2026-05-08 22:36 -34.67023 -58.43053 5030 ft 249 kts 130°
2026-05-08 22:36 -34.67995 -58.41346 4816 ft 246 kts 130°
2026-05-08 22:36 -34.68982 -58.39608 4773 ft 248 kts 130°
2026-05-08 22:36 -34.69952 -58.37904 4772 ft 249 kts 130°
2026-05-08 22:37 -34.70941 -58.36173 4770 ft 248 kts 130°
2026-05-08 22:37 -34.71923 -58.34445 4773 ft 249 kts 130°
2026-05-08 22:37 -34.72910 -58.32706 4769 ft 249 kts 130°
2026-05-08 22:37 -34.73891 -58.30976 4770 ft 249 kts 130°
2026-05-08 22:38 -34.74871 -58.29242 4768 ft 249 kts 130°
2026-05-08 22:38 -34.75854 -58.27508 4771 ft 249 kts 130°
2026-05-08 22:38 -34.76670 -58.25557 4773 ft 280 kts 107°
2026-05-08 22:38 -34.76752 -58.23132 4697 ft 294 kts 80°
2026-05-08 22:39 -34.75987 -58.20836 4322 ft 295 kts 53°
2026-05-08 22:39 -34.74522 -58.19151 3705 ft 290 kts 25°
2026-05-08 22:39 -34.72651 -58.18407 3068 ft 278 kts 358°
2026-05-08 22:39 -34.70806 -58.18688 2640 ft 257 kts 333°
2026-05-08 22:40 -34.69357 -58.19708 2507 ft 228 kts 312°
2026-05-08 22:40 -34.68274 -58.20965 2490 ft 205 kts 309°
2026-05-08 22:40 -34.67254 -58.22143 2500 ft 207 kts 309°
2026-05-08 22:40 -34.66212 -58.23347 2498 ft 204 kts 309°
2026-05-08 22:41 -34.65327 -58.24673 2496 ft 200 kts 299°
2026-05-08 22:41 -34.64546 -58.26060 2500 ft 202 kts 298°
2026-05-08 22:41 -34.63781 -58.27414 2494 ft 184 kts 298°
2026-05-08 22:41 -34.63089 -58.28634 2418 ft 165 kts 296°
2026-05-08 22:42 -34.62441 -58.29775 2395 ft 169 kts 296°
2026-05-08 22:42 -34.61809 -58.30953 2151 ft 164 kts 295°
2026-05-08 22:42 -34.61196 -58.32095 1832 ft 153 kts 296°
2026-05-08 22:42 -34.60648 -58.33088 1697 ft 133 kts 296°
2026-05-08 22:43 -34.60150 -58.33963 1462 ft 125 kts 297°
2026-05-08 22:43 -34.59647 -58.34820 1202 ft 120 kts 295°
2026-05-08 22:43 -34.59190 -58.35680 999 ft 131 kts 295°
2026-05-08 22:43 -34.58843 -58.36323 937 ft 139 kts 298°
2026-05-08 22:44 -34.58286 -58.37292 694 ft 139 kts 298°
2026-05-08 22:44 -34.57765 -58.38280 482 ft 139 kts 300°
2026-05-08 22:44 -34.57227 -58.39228 336 ft 133 kts 301°
2026-05-08 22:44 -34.56719 -58.40152 153 ft 129 kts 301°
2026-05-08 22:45 -34.56218 -58.41048 29 ft 123 kts 300°
2026-05-08 22:45 -34.55898 -58.41628 26 ft 58 kts 306°
2026-05-08 22:45 -34.55700 -58.41926 27 ft 5 kts 354°
2026-05-08 22:45 -34.55673 -58.41906 28 ft 3 kts 58°
2026-05-08 22:46 -34.55673 -58.41878 28 ft 8 kts 99°
2026-05-08 22:46 -34.55704 -58.41801 26 ft 12 kts 118°
2026-05-08 22:46 -34.55748 -58.41711 26 ft 8 kts 123°
2026-05-08 22:46 -34.55782 -58.41637 28 ft 12 kts 117°
2026-05-08 22:47 -34.55825 -58.41537 27 ft 15 kts 116°
2026-05-08 22:47 -34.55876 -58.41413 26 ft 17 kts 117°
2026-05-08 22:47 -34.55898 -58.41303 27 ft 0 kts 45°
2026-05-08 22:47 -34.55882 -58.41288 27 ft 6 kts 35°
2026-05-08 22:48 -34.55835 -58.41274 27 ft 6 kts 21°
2026-05-08 22:48 -34.55812 -58.41254 27 ft 4 kts 39°
2026-05-08 22:48 -34.55802 -58.41243 27 ft 0 kts 41°